When you browse on this site, cookies collect data to enhance your experience and personalize the content and advertising you see.
Visit our Privacy Policy to learn more. By continuing to use the site, you agree to this use of cookies and data.
  • In Spain
  • List of Countries
  • For 7 days
  • Water Temperature
  • Weather Map
  • Weather Widgets
  • user-avatar
    Login

    Hourly Weather Boreshino

    Today, 17 February, Monday

    Time Temperature Precipitation Wind Pressure Humidity
    00:00 -2°C° 0 mm 8 mps 742 mmHg 78%
    01:00 -3°C° 0 mm 9 mps 741 mmHg 78%
    02:00 -2°C° 0 mm 8 mps 741 mmHg 79%
    03:00 -2°C° 0.3 mm 8 mps 740 mmHg 81%
    04:00 -3°C° 0.3 mm 9 mps 739 mmHg 83%
    05:00 -3°C° 0.3 mm 9 mps 738 mmHg 85%
    06:00 -3°C° 0 mm 9 mps 738 mmHg 84%
    07:00 -1°C° 0 mm 9 mps 738 mmHg 82%
    08:00 -1°C° 0 mm 9 mps 738 mmHg 82%
    09:00 -1°C° 0 mm 9 mps 737 mmHg 80%
    10:00 0°C° 0 mm 9 mps 737 mmHg 79%
    11:00 0°C° 0 mm 9 mps 737 mmHg 77%
    12:00 0°C° 0.1 mm 8 mps 737 mmHg 77%
    13:00 +1°C° 0.1 mm 8 mps 737 mmHg 77%
    14:00 +2°C° 0.1 mm 7 mps 738 mmHg 77%
    15:00 +2°C° 0 mm 7 mps 738 mmHg 78%
    16:00 +2°C° 0 mm 7 mps 738 mmHg 79%
    17:00 +2°C° 0 mm 7 mps 738 mmHg 79%
    18:00 +2°C° 0 mm 6 mps 738 mmHg 82%
    19:00 +2°C° 0 mm 6 mps 739 mmHg 84%
    20:00 +2°C° 0 mm 5 mps 739 mmHg 86%
    21:00 +2°C° 0 mm 5 mps 739 mmHg 87%
    22:00 +2°C° 0 mm 5 mps 739 mmHg 89%
    23:00 +3°C° 0 mm 4 mps 739 mmHg 90%

    Tomorrow, 18 February, Tuesday

    Time Temperature Precipitation Wind Pressure Humidity
    00:00 +1°C° 0 mm 4 mps 740 mmHg 91%
    01:00 +1°C° 0 mm 4 mps 740 mmHg 92%
    02:00 +1°C° 0 mm 4 mps 740 mmHg 93%
    03:00 +1°C° 0 mm 4 mps 740 mmHg 94%
    04:00 +1°C° 0 mm 4 mps 739 mmHg 95%
    05:00 +1°C° 0 mm 4 mps 739 mmHg 95%
    06:00 +1°C° 0 mm 4 mps 739 mmHg 95%
    07:00 +1°C° 0 mm 4 mps 739 mmHg 94%
    08:00 +1°C° 0 mm 4 mps 739 mmHg 93%
    09:00 +1°C° 0 mm 5 mps 739 mmHg 93%
    10:00 +2°C° 0 mm 5 mps 738 mmHg 93%
    11:00 +2°C° 0 mm 5 mps 738 mmHg 93%
    12:00 +3°C° 0.1 mm 4 mps 738 mmHg 93%
    13:00 +3°C° 0.1 mm 4 mps 737 mmHg 93%
    14:00 +3°C° 0.1 mm 4 mps 737 mmHg 92%
    15:00 +3°C° 0.3 mm 3 mps 737 mmHg 93%
    16:00 +2°C° 0.3 mm 3 mps 737 mmHg 93%
    17:00 +1°C° 0.3 mm 3 mps 736 mmHg 94%
    18:00 +1°C° 0 mm 3 mps 737 mmHg 94%
    19:00 0°C° 0 mm 3 mps 737 mmHg 93%
    20:00 -1°C° 0 mm 4 mps 737 mmHg 93%
    21:00 -1°C° 0.1 mm 4 mps 737 mmHg 93%
    22:00 -1°C° 0.1 mm 4 mps 737 mmHg 93%
    23:00 -1°C° 0.1 mm 4 mps 737 mmHg 93%

    Day after tomorrow, 19 February, Wednesday

    Time Temperature Precipitation Wind Pressure Humidity
    00:00 -1°C° 0 mm 4 mps 737 mmHg 93%
    01:00 -1°C° 0 mm 4 mps 737 mmHg 92%
    02:00 -1°C° 0 mm 4 mps 737 mmHg 92%
    03:00 -1°C° 0 mm 4 mps 737 mmHg 93%
    04:00 -1°C° 0 mm 4 mps 737 mmHg 94%
    05:00 -1°C° 0 mm 4 mps 737 mmHg 94%
    06:00 -1°C° 0.4 mm 4 mps 738 mmHg 94%
    07:00 -1°C° 0.4 mm 4 mps 738 mmHg 94%
    08:00 -1°C° 0.4 mm 4 mps 738 mmHg 94%
    09:00 -1°C° 0 mm 5 mps 738 mmHg 89%
    10:00 0°C° 0 mm 5 mps 739 mmHg 83%
    11:00 +1°C° 0 mm 6 mps 739 mmHg 77%
    12:00 +1°C° 0 mm 6 mps 739 mmHg 77%
    13:00 +1°C° 0 mm 6 mps 739 mmHg 77%
    14:00 +1°C° 0 mm 6 mps 739 mmHg 76%
    15:00 0°C° 0 mm 5 mps 739 mmHg 79%
    16:00 -1°C° 0 mm 4 mps 739 mmHg 81%
    17:00 0°C° 0 mm 3 mps 739 mmHg 84%
    18:00 -1°C° 0 mm 4 mps 739 mmHg 83%
    19:00 -1°C° 0 mm 4 mps 740 mmHg 82%
    20:00 -1°C° 0 mm 4 mps 740 mmHg 82%
    21:00 -1°C° 0 mm 4 mps 740 mmHg 83%
    22:00 -1°C° 0 mm 4 mps 740 mmHg 83%
    23:00 -1°C° 0 mm 4 mps 740 mmHg 84%

    20 February, Thursday

    Time Temperature Precipitation Wind Pressure Humidity
    00:00 -1°C° 0 mm 4 mps 740 mmHg 86%
    01:00 0°C° 0 mm 3 mps 740 mmHg 87%
    02:00 -1°C° 0 mm 3 mps 740 mmHg 89%
    03:00 -1°C° 0 mm 3 mps 740 mmHg 88%
    04:00 -1°C° 0 mm 3 mps 740 mmHg 88%
    05:00 -1°C° 0 mm 4 mps 740 mmHg 88%
    06:00 -2°C° 0 mm 4 mps 740 mmHg 88%
    07:00 -2°C° 0 mm 4 mps 740 mmHg 88%
    08:00 -2°C° 0 mm 4 mps 740 mmHg 88%
    09:00 -1°C° 0 mm 4 mps 740 mmHg 86%
    10:00 0°C° 0 mm 4 mps 741 mmHg 85%
    11:00 0°C° 0 mm 4 mps 741 mmHg 83%
    12:00 +1°C° 0 mm 4 mps 741 mmHg 85%
    13:00 +1°C° 0 mm 4 mps 741 mmHg 86%
    14:00 +1°C° 0 mm 4 mps 741 mmHg 88%
    15:00 +1°C° 0.1 mm 3 mps 741 mmHg 91%
    16:00 +1°C° 0.1 mm 3 mps 742 mmHg 94%
    17:00 +2°C° 0.1 mm 2 mps 742 mmHg 97%
    18:00 +1°C° 0.1 mm 2 mps 742 mmHg 97%
    19:00 +1°C° 0.1 mm 2 mps 742 mmHg 98%
    20:00 +1°C° 0.1 mm 2 mps 743 mmHg 98%
    21:00 +1°C° 0 mm 2 mps 743 mmHg 98%
    22:00 +2°C° 0 mm 1 mps 743 mmHg 97%
    23:00 +2°C° 0 mm 1 mps 744 mmHg 97%

    21 February, Friday

    Time Temperature Precipitation Wind Pressure Humidity
    00:00 +2°C° 0 mm 1 mps 744 mmHg 96%
    01:00 +2°C° 0 mm 1 mps 744 mmHg 96%
    02:00 +2°C° 0 mm 1 mps 744 mmHg 95%
    03:00 +1°C° 0 mm 1 mps 744 mmHg 95%
    04:00 +1°C° 0 mm 1 mps 744 mmHg 96%
    05:00 +1°C° 0 mm 1 mps 744 mmHg 96%
    06:00 +1°C° 0 mm 1 mps 744 mmHg 96%
    07:00 +1°C° 0 mm 1 mps 745 mmHg 96%
    08:00 +1°C° 0 mm 1 mps 745 mmHg 96%
    15:00 +1°C° 0 mm 3 mps 744 mmHg 88%
    16:00 +1°C° 0 mm 3 mps 744 mmHg 90%
    17:00 0°C° 0 mm 3 mps 743 mmHg 91%
    18:00 0°C° 0 mm 3 mps 744 mmHg 90%
    19:00 0°C° 0 mm 3 mps 744 mmHg 88%
    20:00 0°C° 0 mm 3 mps 744 mmHg 87%
    21:00 0°C° 0 mm 3 mps 744 mmHg 86%
    22:00 0°C° 0 mm 3 mps 744 mmHg 85%
    23:00 0°C° 0 mm 3 mps 744 mmHg 84%

    22 February, Saturday

    Time Temperature Precipitation Wind Pressure Humidity
    00:00 0°C° 0 mm 3 mps 744 mmHg 85%
    01:00 0°C° 0 mm 3 mps 744 mmHg 86%
    02:00 -1°C° 0 mm 3 mps 744 mmHg 87%
    03:00 -1°C° 0 mm 3 mps 744 mmHg 87%
    04:00 -1°C° 0 mm 3 mps 744 mmHg 87%
    05:00 -2°C° 0 mm 3 mps 743 mmHg 87%
    06:00 -3°C° 0 mm 4 mps 743 mmHg 87%
    07:00 -2°C° 0 mm 4 mps 743 mmHg 86%
    08:00 -2°C° 0 mm 4 mps 743 mmHg 85%
    09:00 -2°C° 0 mm 5 mps 743 mmHg 87%
    10:00 -1°C° 0 mm 5 mps 743 mmHg 89%
    11:00 -1°C° 0 mm 5 mps 743 mmHg 91%
    12:00 -1°C° 0 mm 5 mps 742 mmHg 89%
    13:00 -1°C° 0 mm 6 mps 741 mmHg 86%
    14:00 -1°C° 0 mm 6 mps 741 mmHg 84%
    15:00 -1°C° 0 mm 6 mps 740 mmHg 83%
    16:00 -2°C° 0 mm 6 mps 739 mmHg 81%
    17:00 -2°C° 0 mm 6 mps 738 mmHg 80%
    18:00 -2°C° 0.1 mm 6 mps 737 mmHg 83%
    19:00 -2°C° 0.1 mm 7 mps 737 mmHg 87%
    20:00 -2°C° 0.1 mm 8 mps 736 mmHg 90%
    21:00 -2°C° 0.9 mm 8 mps 734 mmHg 92%
    22:00 -4°C° 0.9 mm 9 mps 733 mmHg 94%
    23:00 -4°C° 0.9 mm 9 mps 732 mmHg 96%
    Show more